owner,sensor,date,latitude,longitude,air_pressure(mBar),qcFlag 
TABS,ioos:station:wmo:42045:1,2007-04-01T00:00:00Z,26.2168,-96.4998,993.97,11111222 
TABS,ioos:station:wmo:42045:1,2007-04-01T00:30:00Z,26.2168,-96.4998,993.4,11111222 
TABS,ioos:station:wmo:42045:1,2007-04-01T01:00:00Z,26.2168,-96.4998,993.2,11111222 
TABS,ioos:station:wmo:42045:1,2007-04-01T01:30:00Z,26.2168,-96.4998,993.08,11111222 
TABS,ioos:station:wmo:42045:1,2007-04-01T02:00:00Z,26.2168,-96.4998,993.1,11111222 
TABS,ioos:station:wmo:42045:1,2007-04-01T02:30:00Z,26.2168,-96.4998,993.11,11111222 
TABS,ioos:station:wmo:42045:1,2007-04-01T03:00:00Z,26.2168,-96.4998,993.51,11111222 
TABS,ioos:station:wmo:42045:1,2007-04-01T03:30:00Z,26.2168,-96.4998,993.63,11111222 
TABS,ioos:station:wmo:42045:1,2007-04-01T04:00:00Z,26.2168,-96.4998,992.62,11111222 
TABS,ioos:station:wmo:42045:1,2007-04-01T04:30:00Z,26.2168,-96.4998,991.84,11111222 
TABS,ioos:station:wmo:42045:1,2007-04-01T05:00:00Z,26.2168,-96.4998,991.37,11111222 
TABS,ioos:station:wmo:42045:1,2007-04-01T05:30:00Z,26.2168,-96.4998,990.96,11111222 
TABS,ioos:station:wmo:42045:1,2007-04-01T06:00:00Z,26.2168,-96.4998,990.63,11111222 
TABS,ioos:station:wmo:42045:1,2007-04-01T06:30:00Z,26.2168,-96.4998,990.28,11111222 
TABS,ioos:station:wmo:42045:1,2007-04-01T07:00:00Z,26.2168,-96.4998,990.07,11111222 
TABS,ioos:station:wmo:42045:1,2007-04-01T07:30:00Z,26.2168,-96.4998,989.73,11111222 
TABS,ioos:station:wmo:42045:1,2007-04-01T08:00:00Z,26.2168,-96.4998,989.8,11111222 
TABS,ioos:station:wmo:42045:1,2007-04-01T08:30:00Z,26.2168,-96.4998,989.8,11111222 
TABS,ioos:station:wmo:42045:1,2007-04-01T09:00:00Z,26.2168,-96.4998,989.67,11111222 
TABS,ioos:station:wmo:42045:1,2007-04-01T09:30:00Z,26.2168,-96.4998,989.54,11111222 
TABS,ioos:station:wmo:42045:1,2007-04-01T10:00:00Z,26.2168,-96.4998,989.37,11111222 
TABS,ioos:station:wmo:42045:1,2007-04-01T10:30:00Z,26.2168,-96.4998,989.2,11111222 
TABS,ioos:station:wmo:42045:1,2007-04-01T11:00:00Z,26.2168,-96.4998,989.19,11111222 
TABS,ioos:station:wmo:42045:1,2007-04-01T11:30:00Z,26.2168,-96.4998,989.0,11111222 
TABS,ioos:station:wmo:42045:1,2007-04-01T12:00:00Z,26.2168,-96.4998,989.22,11111222 
TABS,ioos:station:wmo:42045:1,2007-04-01T12:30:00Z,26.2168,-96.4998,988.85,11111222 
TABS,ioos:station:wmo:42045:1,2007-04-01T13:00:00Z,26.2168,-96.4998,990.03,11111222 
TABS,ioos:station:wmo:42045:1,2007-04-01T13:30:00Z,26.2168,-96.4998,992.15,11111222 
TABS,ioos:station:wmo:42045:1,2007-04-01T14:00:00Z,26.2168,-96.4998,994.63,11111222 
TABS,ioos:station:wmo:42045:1,2007-04-01T14:30:00Z,26.2168,-96.4998,997.79,11111222 
TABS,ioos:station:wmo:42045:1,2007-04-01T15:00:00Z,26.2168,-96.4998,998.74,11111222 
TABS,ioos:station:wmo:42045:1,2007-04-01T15:30:00Z,26.2168,-96.4998,1000.6,11111222 
TABS,ioos:station:wmo:42045:1,2007-04-01T16:00:00Z,26.2168,-96.4998,1004.82,11111222 
TABS,ioos:station:wmo:42045:1,2007-04-01T16:30:00Z,26.2168,-96.4998,1005.25,11111222 
TABS,ioos:station:wmo:42045:1,2007-04-01T17:00:00Z,26.2168,-96.4998,1001.89,11111222 
TABS,ioos:station:wmo:42045:1,2007-04-01T17:30:00Z,26.2168,-96.4998,1002.61,11111222 
TABS,ioos:station:wmo:42045:1,2007-04-01T18:00:00Z,26.2168,-96.4998,1004.95,11111222 
TABS,ioos:station:wmo:42045:1,2007-04-01T18:30:00Z,26.2168,-96.4998,1006.59,11111222 
TABS,ioos:station:wmo:42045:1,2007-04-01T19:00:00Z,26.2168,-96.4998,1010.81,11111222 
TABS,ioos:station:wmo:42045:1,2007-04-01T19:30:00Z,26.2168,-96.4998,1010.65,11111222 
TABS,ioos:station:wmo:42045:1,2007-04-01T20:00:00Z,26.2168,-96.4998,1006.09,11111222 
TABS,ioos:station:wmo:42045:1,2007-04-01T20:30:00Z,26.2168,-96.4998,1006.81,11111222 
TABS,ioos:station:wmo:42045:1,2007-04-01T21:00:00Z,26.2168,-96.4998,1006.07,11111222 
TABS,ioos:station:wmo:42045:1,2007-04-01T21:30:00Z,26.2168,-96.4998,1004.45,11111222 
TABS,ioos:station:wmo:42045:1,2007-04-01T22:00:00Z,26.2168,-96.4998,1003.22,11111222 
TABS,ioos:station:wmo:42045:1,2007-04-01T22:30:00Z,26.2168,-96.4998,1001.05,11111222 
TABS,ioos:station:wmo:42045:1,2007-04-01T23:00:00Z,26.2168,-96.4998,1001.49,11111222 
TABS,ioos:station:wmo:42045:1,2007-04-01T23:30:00Z,26.2168,-96.4998,998.24,11111222 
TABS,ioos:station:wmo:42045:1,2007-04-02T00:00:00Z,26.2168,-96.4998,995.38,11111222 
TABS,ioos:station:wmo:42045:1,2007-04-02T00:30:00Z,26.2168,-96.4998,994.14,11111222 
TABS,ioos:station:wmo:42045:1,2007-04-02T01:00:00Z,26.2168,-96.4998,993.43,11111222 
TABS,ioos:station:wmo:42045:1,2007-04-02T01:30:00Z,26.2168,-96.4998,993.31,11111222 
TABS,ioos:station:wmo:42045:1,2007-04-02T02:00:00Z,26.2168,-96.4998,993.16,11111222 
TABS,ioos:station:wmo:42045:1,2007-04-02T02:30:00Z,26.2168,-96.4998,993.17,11111222 
TABS,ioos:station:wmo:42045:1,2007-04-02T03:00:00Z,26.2168,-96.4998,992.95,11111222 
TABS,ioos:station:wmo:42045:1,2007-04-02T03:30:00Z,26.2168,-96.4998,992.84,11111222 
TABS,ioos:station:wmo:42045:1,2007-04-02T04:00:00Z,26.2168,-96.4998,992.83,11111222 
TABS,ioos:station:wmo:42045:1,2007-04-02T04:30:00Z,26.2168,-96.4998,992.98,11111222 
TABS,ioos:station:wmo:42045:1,2007-04-02T05:00:00Z,26.2168,-96.4998,993.59,11111222 
TABS,ioos:station:wmo:42045:1,2007-04-02T05:30:00Z,26.2168,-96.4998,993.81,11111222 
TABS,ioos:station:wmo:42045:1,2007-04-02T06:00:00Z,26.2168,-96.4998,993.82,11111222 
TABS,ioos:station:wmo:42045:1,2007-04-02T06:30:00Z,26.2168,-96.4998,993.85,11111222 
TABS,ioos:station:wmo:42045:1,2007-04-02T07:00:00Z,26.2168,-96.4998,993.69,11111222 
TABS,ioos:station:wmo:42045:1,2007-04-02T07:30:00Z,26.2168,-96.4998,993.59,11111222 
TABS,ioos:station:wmo:42045:1,2007-04-02T08:00:00Z,26.2168,-96.4998,993.79,11111222 
TABS,ioos:station:wmo:42045:1,2007-04-02T08:30:00Z,26.2168,-96.4998,993.86,11111222 
TABS,ioos:station:wmo:42045:1,2007-04-02T09:00:00Z,26.2168,-96.4998,993.39,11111222 
TABS,ioos:station:wmo:42045:1,2007-04-02T09:30:00Z,26.2168,-96.4998,991.08,11111222 
TABS,ioos:station:wmo:42045:1,2007-04-02T10:00:00Z,26.2168,-96.4998,992.46,11111222 
TABS,ioos:station:wmo:42045:1,2007-04-02T10:30:00Z,26.2168,-96.4998,991.92,11111222 
TABS,ioos:station:wmo:42045:1,2007-04-02T11:00:00Z,26.2168,-96.4998,992.44,11111222 
TABS,ioos:station:wmo:42045:1,2007-04-02T11:30:00Z,26.2168,-96.4998,993.99,11111222 
TABS,ioos:station:wmo:42045:1,2007-04-02T12:00:00Z,26.2168,-96.4998,993.33,11111222 
TABS,ioos:station:wmo:42045:1,2007-04-02T12:30:00Z,26.2168,-96.4998,994.11,11111222 
TABS,ioos:station:wmo:42045:1,2007-04-02T13:00:00Z,26.2168,-96.4998,993.61,11111222 
TABS,ioos:station:wmo:42045:1,2007-04-02T13:30:00Z,26.2168,-96.4998,993.99,11111222 
TABS,ioos:station:wmo:42045:1,2007-04-02T14:00:00Z,26.2168,-96.4998,995.88,11111222 
TABS,ioos:station:wmo:42045:1,2007-04-02T14:30:00Z,26.2168,-96.4998,1001.25,11111222 
TABS,ioos:station:wmo:42045:1,2007-04-02T15:00:00Z,26.2168,-96.4998,1005.86,11111222 
TABS,ioos:station:wmo:42045:1,2007-04-02T15:30:00Z,26.2168,-96.4998,1001.38,11111222 
TABS,ioos:station:wmo:42045:1,2007-04-02T16:00:00Z,26.2168,-96.4998,1002.62,11111222 
TABS,ioos:station:wmo:42045:1,2007-04-02T16:30:00Z,26.2168,-96.4998,1005.73,11111222 
TABS,ioos:station:wmo:42045:1,2007-04-02T17:00:00Z,26.2168,-96.4998,1006.31,11111222 
TABS,ioos:station:wmo:42045:1,2007-04-02T17:30:00Z,26.2168,-96.4998,1003.89,11111222 
TABS,ioos:station:wmo:42045:1,2007-04-02T18:00:00Z,26.2168,-96.4998,1004.23,11111222 
TABS,ioos:station:wmo:42045:1,2007-04-02T18:30:00Z,26.2168,-96.4998,1003.79,11111222 
TABS,ioos:station:wmo:42045:1,2007-04-02T19:00:00Z,26.2168,-96.4998,1003.22,11111222 
TABS,ioos:station:wmo:42045:1,2007-04-02T19:30:00Z,26.2168,-96.4998,1007.1,11111222 
TABS,ioos:station:wmo:42045:1,2007-04-02T20:00:00Z,26.2168,-96.4998,1003.46,11111222 
TABS,ioos:station:wmo:42045:1,2007-04-02T20:30:00Z,26.2168,-96.4998,1002.84,11111222 
TABS,ioos:station:wmo:42045:1,2007-04-02T21:00:00Z,26.2168,-96.4998,1003.55,11111222 
TABS,ioos:station:wmo:42045:1,2007-04-02T21:30:00Z,26.2168,-96.4998,1002.75,11111222 
TABS,ioos:station:wmo:42045:1,2007-04-02T22:00:00Z,26.2168,-96.4998,1003.14,11111222 
TABS,ioos:station:wmo:42045:1,2007-04-02T22:30:00Z,26.2168,-96.4998,1002.32,11111222 
TABS,ioos:station:wmo:42045:1,2007-04-02T23:00:00Z,26.2168,-96.4998,1000.13,11111222 
TABS,ioos:station:wmo:42045:1,2007-04-02T23:30:00Z,26.2168,-96.4998,999.46,11111222 
TABS,ioos:station:wmo:42045:1,2007-04-03T00:00:00Z,26.2168,-96.4998,998.16,11111222 
TABS,ioos:station:wmo:42045:1,2007-04-03T00:30:00Z,26.2168,-96.4998,997.2,11111222 
TABS,ioos:station:wmo:42045:1,2007-04-03T01:00:00Z,26.2168,-96.4998,996.57,11111222 
TABS,ioos:station:wmo:42045:1,2007-04-03T01:30:00Z,26.2168,-96.4998,995.81,11111222 
TABS,ioos:station:wmo:42045:1,2007-04-03T02:00:00Z,26.2168,-96.4998,995.74,11111222 
TABS,ioos:station:wmo:42045:1,2007-04-03T02:30:00Z,26.2168,-96.4998,995.63,11111222 
TABS,ioos:station:wmo:42045:1,2007-04-03T03:00:00Z,26.2168,-96.4998,995.64,11111222 
TABS,ioos:station:wmo:42045:1,2007-04-03T03:30:00Z,26.2168,-96.4998,995.28,11111222 
TABS,ioos:station:wmo:42045:1,2007-04-03T04:00:00Z,26.2168,-96.4998,995.07,11111222 
TABS,ioos:station:wmo:42045:1,2007-04-03T04:30:00Z,26.2168,-96.4998,995.16,11111222 
TABS,ioos:station:wmo:42045:1,2007-04-03T05:00:00Z,26.2168,-96.4998,995.63,11111222 
TABS,ioos:station:wmo:42045:1,2007-04-03T05:30:00Z,26.2168,-96.4998,995.45,11111222 
TABS,ioos:station:wmo:42045:1,2007-04-03T06:00:00Z,26.2168,-96.4998,995.32,11111222 
TABS,ioos:station:wmo:42045:1,2007-04-03T06:30:00Z,26.2168,-96.4998,995.28,11111222 
TABS,ioos:station:wmo:42045:1,2007-04-03T07:00:00Z,26.2168,-96.4998,995.38,11111222 
TABS,ioos:station:wmo:42045:1,2007-04-03T07:30:00Z,26.2168,-96.4998,995.77,11111222 
TABS,ioos:station:wmo:42045:1,2007-04-03T08:00:00Z,26.2168,-96.4998,995.91,11111222 
TABS,ioos:station:wmo:42045:1,2007-04-03T08:30:00Z,26.2168,-96.4998,995.74,11111222 
TABS,ioos:station:wmo:42045:1,2007-04-03T09:00:00Z,26.2168,-96.4998,995.42,11111222 
TABS,ioos:station:wmo:42045:1,2007-04-03T09:30:00Z,26.2168,-96.4998,995.35,11111222 
TABS,ioos:station:wmo:42045:1,2007-04-03T10:00:00Z,26.2168,-96.4998,995.37,11111222 
TABS,ioos:station:wmo:42045:1,2007-04-03T10:30:00Z,26.2168,-96.4998,995.26,11111222 
TABS,ioos:station:wmo:42045:1,2007-04-03T11:00:00Z,26.2168,-96.4998,995.26,11111222 
TABS,ioos:station:wmo:42045:1,2007-04-03T11:30:00Z,26.2168,-96.4998,995.41,11111222 
TABS,ioos:station:wmo:42045:1,2007-04-03T12:00:00Z,26.2168,-96.4998,995.3,11111222 
TABS,ioos:station:wmo:42045:1,2007-04-03T12:30:00Z,26.2168,-96.4998,995.43,11111222 
TABS,ioos:station:wmo:42045:1,2007-04-03T13:00:00Z,26.2168,-96.4998,996.79,11111222 
TABS,ioos:station:wmo:42045:1,2007-04-03T13:30:00Z,26.2168,-96.4998,999.07,11111222 
TABS,ioos:station:wmo:42045:1,2007-04-03T14:00:00Z,26.2168,-96.4998,1003.79,11111222 
TABS,ioos:station:wmo:42045:1,2007-04-03T14:30:00Z,26.2168,-96.4998,1007.23,11111222 
TABS,ioos:station:wmo:42045:1,2007-04-03T15:00:00Z,26.2168,-96.4998,1016.21,11111222 
TABS,ioos:station:wmo:42045:1,2007-04-03T15:30:00Z,26.2168,-96.4998,1020.05,11111222 
TABS,ioos:station:wmo:42045:1,2007-04-03T16:00:00Z,26.2168,-96.4998,1021.54,11111222 
TABS,ioos:station:wmo:42045:1,2007-04-03T16:30:00Z,26.2168,-96.4998,1019.42,11111222 
TABS,ioos:station:wmo:42045:1,2007-04-03T17:00:00Z,26.2168,-96.4998,1017.8,11111222 
TABS,ioos:station:wmo:42045:1,2007-04-03T17:30:00Z,26.2168,-96.4998,1015.7,11111222 
TABS,ioos:station:wmo:42045:1,2007-04-03T18:00:00Z,26.2168,-96.4998,1017.11,11111222 
TABS,ioos:station:wmo:42045:1,2007-04-03T18:30:00Z,26.2168,-96.4998,1017.67,11111222 
TABS,ioos:station:wmo:42045:1,2007-04-03T19:00:00Z,26.2168,-96.4998,1019.14,11111222 
TABS,ioos:station:wmo:42045:1,2007-04-03T19:30:00Z,26.2168,-96.4998,1018.53,11111222 
TABS,ioos:station:wmo:42045:1,2007-04-03T20:00:00Z,26.2168,-96.4998,1018.22,11111222 
TABS,ioos:station:wmo:42045:1,2007-04-03T20:30:00Z,26.2168,-96.4998,1018.12,11111222 
TABS,ioos:station:wmo:42045:1,2007-04-03T21:00:00Z,26.2168,-96.4998,1019.05,11111222 
TABS,ioos:station:wmo:42045:1,2007-04-03T21:30:00Z,26.2168,-96.4998,1018.18,11111222 
TABS,ioos:station:wmo:42045:1,2007-04-03T22:00:00Z,26.2168,-96.4998,1019.57,11111222 
TABS,ioos:station:wmo:42045:1,2007-04-03T22:30:00Z,26.2168,-96.4998,1013.94,11111222 
TABS,ioos:station:wmo:42045:1,2007-04-03T23:00:00Z,26.2168,-96.4998,1007.19,11111222 
TABS,ioos:station:wmo:42045:1,2007-04-03T23:30:00Z,26.2168,-96.4998,1003.53,11111222 
TABS,ioos:station:wmo:42045:1,2007-04-04T00:00:00Z,26.2168,-96.4998,1000.46,11111222 
TABS,ioos:station:wmo:42045:1,2007-04-04T00:30:00Z,26.2168,-96.4998,997.98,11111222 
TABS,ioos:station:wmo:42045:1,2007-04-04T01:00:00Z,26.2168,-96.4998,997.16,11111222 
TABS,ioos:station:wmo:42045:1,2007-04-04T01:30:00Z,26.2168,-96.4998,996.7,11111222 
TABS,ioos:station:wmo:42045:1,2007-04-04T02:00:00Z,26.2168,-96.4998,996.61,11111222 
TABS,ioos:station:wmo:42045:1,2007-04-04T02:30:00Z,26.2168,-96.4998,996.62,11111222 
TABS,ioos:station:wmo:42045:1,2007-04-04T03:00:00Z,26.2168,-96.4998,996.8,11111222 
TABS,ioos:station:wmo:42045:1,2007-04-04T03:30:00Z,26.2168,-96.4998,996.99,11111222 
TABS,ioos:station:wmo:42045:1,2007-04-04T04:00:00Z,26.2168,-96.4998,997.08,11111222 
TABS,ioos:station:wmo:42045:1,2007-04-04T04:30:00Z,26.2168,-96.4998,997.28,11111222 
TABS,ioos:station:wmo:42045:1,2007-04-04T05:00:00Z,26.2168,-96.4998,996.96,11111222 
TABS,ioos:station:wmo:42045:1,2007-04-04T05:30:00Z,26.2168,-96.4998,996.73,11111222 
TABS,ioos:station:wmo:42045:1,2007-04-04T06:00:00Z,26.2168,-96.4998,996.82,11111222 
TABS,ioos:station:wmo:42045:1,2007-04-04T06:30:00Z,26.2168,-96.4998,997.12,11111222 
TABS,ioos:station:wmo:42045:1,2007-04-04T07:00:00Z,26.2168,-96.4998,997.36,11111222 
TABS,ioos:station:wmo:42045:1,2007-04-04T07:30:00Z,26.2168,-96.4998,997.42,11111222 
TABS,ioos:station:wmo:42045:1,2007-04-04T08:00:00Z,26.2168,-96.4998,996.7,11111222 
TABS,ioos:station:wmo:42045:1,2007-04-04T08:30:00Z,26.2168,-96.4998,996.95,11111222 
TABS,ioos:station:wmo:42045:1,2007-04-04T09:00:00Z,26.2168,-96.4998,997.5,11111222 
TABS,ioos:station:wmo:42045:1,2007-04-04T09:30:00Z,26.2168,-96.4998,994.39,11111222 
TABS,ioos:station:wmo:42045:1,2007-04-04T10:00:00Z,26.2168,-96.4998,987.52,11111222 
TABS,ioos:station:wmo:42045:1,2007-04-04T10:30:00Z,26.2168,-96.4998,988.66,11111222 
TABS,ioos:station:wmo:42045:1,2007-04-04T11:00:00Z,26.2168,-96.4998,989.76,11111222 
TABS,ioos:station:wmo:42045:1,2007-04-04T11:30:00Z,26.2168,-96.4998,990.58,11111222 
TABS,ioos:station:wmo:42045:1,2007-04-04T12:00:00Z,26.2168,-96.4998,990.04,11111222 
TABS,ioos:station:wmo:42045:1,2007-04-04T12:30:00Z,26.2168,-96.4998,990.53,11111222 
TABS,ioos:station:wmo:42045:1,2007-04-04T13:00:00Z,26.2168,-96.4998,990.27,11111222 
TABS,ioos:station:wmo:42045:1,2007-04-04T13:30:00Z,26.2168,-96.4998,990.98,11111222 
TABS,ioos:station:wmo:42045:1,2007-04-04T14:00:00Z,26.2168,-96.4998,992.99,11111222 
TABS,ioos:station:wmo:42045:1,2007-04-04T14:30:00Z,26.2168,-96.4998,993.96,11111222 
TABS,ioos:station:wmo:42045:1,2007-04-04T15:00:00Z,26.2168,-96.4998,994.39,11111222 
TABS,ioos:station:wmo:42045:1,2007-04-04T15:30:00Z,26.2168,-96.4998,996.62,11111222 
TABS,ioos:station:wmo:42045:1,2007-04-04T16:00:00Z,26.2168,-96.4998,997.36,11111222 
TABS,ioos:station:wmo:42045:1,2007-04-04T16:30:00Z,26.2168,-96.4998,997.29,11111222 
TABS,ioos:station:wmo:42045:1,2007-04-04T17:00:00Z,26.2168,-96.4998,998.09,11111222 
TABS,ioos:station:wmo:42045:1,2007-04-04T17:30:00Z,26.2168,-96.4998,999.15,11111222 
TABS,ioos:station:wmo:42045:1,2007-04-04T18:00:00Z,26.2168,-96.4998,1001.94,11111222 
TABS,ioos:station:wmo:42045:1,2007-04-04T18:30:00Z,26.2168,-96.4998,1000.92,11111222 
TABS,ioos:station:wmo:42045:1,2007-04-04T19:00:00Z,26.2168,-96.4998,999.72,11111222 
TABS,ioos:station:wmo:42045:1,2007-04-04T19:30:00Z,26.2168,-96.4998,1003.43,11111222 
TABS,ioos:station:wmo:42045:1,2007-04-04T20:00:00Z,26.2168,-96.4998,1005.95,11111222 
TABS,ioos:station:wmo:42045:1,2007-04-04T20:30:00Z,26.2168,-96.4998,1006.87,11111222 
TABS,ioos:station:wmo:42045:1,2007-04-04T21:00:00Z,26.2168,-96.4998,1003.36,11111222 
TABS,ioos:station:wmo:42045:1,2007-04-04T21:30:00Z,26.2168,-96.4998,1004.49,11111222 
TABS,ioos:station:wmo:42045:1,2007-04-04T22:00:00Z,26.2168,-96.4998,1003.28,11111222 
TABS,ioos:station:wmo:42045:1,2007-04-04T22:30:00Z,26.2168,-96.4998,1002.97,11111222 
TABS,ioos:station:wmo:42045:1,2007-04-04T23:00:00Z,26.2168,-96.4998,998.23,11111222 
TABS,ioos:station:wmo:42045:1,2007-04-04T23:30:00Z,26.2168,-96.4998,990.25,11111222 
TABS,ioos:station:wmo:42045:1,2007-04-05T00:00:00Z,26.2168,-96.4998,988.81,11111222 
TABS,ioos:station:wmo:42045:1,2007-04-05T00:30:00Z,26.2168,-96.4998,989.16,11111222 
TABS,ioos:station:wmo:42045:1,2007-04-05T01:00:00Z,26.2168,-96.4998,986.6,11111222 
TABS,ioos:station:wmo:42045:1,2007-04-05T01:30:00Z,26.2168,-96.4998,988.21,11111222 
TABS,ioos:station:wmo:42045:1,2007-04-05T02:00:00Z,26.2168,-96.4998,989.52,11111222 
TABS,ioos:station:wmo:42045:1,2007-04-05T02:30:00Z,26.2168,-96.4998,989.86,11111222 
TABS,ioos:station:wmo:42045:1,2007-04-05T03:00:00Z,26.2168,-96.4998,988.19,11111222 
TABS,ioos:station:wmo:42045:1,2007-04-05T03:30:00Z,26.2168,-96.4998,989.87,11111222 
TABS,ioos:station:wmo:42045:1,2007-04-05T04:00:00Z,26.2168,-96.4998,990.73,11111222 
TABS,ioos:station:wmo:42045:1,2007-04-05T04:30:00Z,26.2168,-96.4998,990.89,11111222 
TABS,ioos:station:wmo:42045:1,2007-04-05T05:00:00Z,26.2168,-96.4998,989.97,11111222 
TABS,ioos:station:wmo:42045:1,2007-04-05T05:30:00Z,26.2168,-96.4998,989.63,11111222 
TABS,ioos:station:wmo:42045:1,2007-04-05T06:00:00Z,26.2168,-96.4998,989.33,11111222 
TABS,ioos:station:wmo:42045:1,2007-04-05T06:30:00Z,26.2168,-96.4998,988.51,11111222 
TABS,ioos:station:wmo:42045:1,2007-04-05T07:00:00Z,26.2168,-96.4998,987.92,11111222 
TABS,ioos:station:wmo:42045:1,2007-04-05T07:30:00Z,26.2168,-96.4998,987.55,11111222 
TABS,ioos:station:wmo:42045:1,2007-04-05T08:00:00Z,26.2168,-96.4998,986.45,11111222 
TABS,ioos:station:wmo:42045:1,2007-04-05T08:30:00Z,26.2168,-96.4998,985.62,11111222 
TABS,ioos:station:wmo:42045:1,2007-04-05T09:00:00Z,26.2168,-96.4998,985.49,11111222 
TABS,ioos:station:wmo:42045:1,2007-04-05T09:30:00Z,26.2168,-96.4998,985.37,11111222 
TABS,ioos:station:wmo:42045:1,2007-04-05T10:00:00Z,26.2168,-96.4998,984.96,11111222 
TABS,ioos:station:wmo:42045:1,2007-04-05T10:30:00Z,26.2168,-96.4998,984.66,11111222 
TABS,ioos:station:wmo:42045:1,2007-04-05T11:00:00Z,26.2168,-96.4998,984.69,11111222 
TABS,ioos:station:wmo:42045:1,2007-04-05T11:30:00Z,26.2168,-96.4998,984.81,11111222 
TABS,ioos:station:wmo:42045:1,2007-04-05T12:00:00Z,26.2168,-96.4998,985.11,11111222 
TABS,ioos:station:wmo:42045:1,2007-04-05T12:30:00Z,26.2168,-96.4998,986.83,11111222 
TABS,ioos:station:wmo:42045:1,2007-04-05T13:00:00Z,26.2168,-96.4998,994.37,11111222 
TABS,ioos:station:wmo:42045:1,2007-04-05T13:30:00Z,26.2168,-96.4998,995.62,11111222 
TABS,ioos:station:wmo:42045:1,2007-04-05T14:00:00Z,26.2168,-96.4998,1001.74,11111222 
TABS,ioos:station:wmo:42045:1,2007-04-05T14:30:00Z,26.2168,-96.4998,1001.66,11111222 
TABS,ioos:station:wmo:42045:1,2007-04-05T15:00:00Z,26.2168,-96.4998,1001.15,11111222 
TABS,ioos:station:wmo:42045:1,2007-04-05T15:30:00Z,26.2168,-96.4998,1000.67,11111222 
TABS,ioos:station:wmo:42045:1,2007-04-05T16:00:00Z,26.2168,-96.4998,1000.82,11111222 
TABS,ioos:station:wmo:42045:1,2007-04-05T16:30:00Z,26.2168,-96.4998,999.5,11111222 
TABS,ioos:station:wmo:42045:1,2007-04-05T17:00:00Z,26.2168,-96.4998,997.26,11111222 
TABS,ioos:station:wmo:42045:1,2007-04-05T17:30:00Z,26.2168,-96.4998,993.22,11111222 
TABS,ioos:station:wmo:42045:1,2007-04-05T18:00:00Z,26.2168,-96.4998,989.34,11111222 
TABS,ioos:station:wmo:42045:1,2007-04-05T18:30:00Z,26.2168,-96.4998,988.33,11111222 
TABS,ioos:station:wmo:42045:1,2007-04-05T19:00:00Z,26.2168,-96.4998,987.88,11111222 
TABS,ioos:station:wmo:42045:1,2007-04-05T19:30:00Z,26.2168,-96.4998,988.22,11111222 
TABS,ioos:station:wmo:42045:1,2007-04-05T20:00:00Z,26.2168,-96.4998,988.88,11111222 
TABS,ioos:station:wmo:42045:1,2007-04-05T20:30:00Z,26.2168,-96.4998,990.2,11111222 
TABS,ioos:station:wmo:42045:1,2007-04-05T21:00:00Z,26.2168,-96.4998,992.06,11111222 
TABS,ioos:station:wmo:42045:1,2007-04-05T21:30:00Z,26.2168,-96.4998,992.87,11111222 
TABS,ioos:station:wmo:42045:1,2007-04-05T22:00:00Z,26.2168,-96.4998,995.22,11111222 
TABS,ioos:station:wmo:42045:1,2007-04-05T22:30:00Z,26.2168,-96.4998,995.39,11111222 
TABS,ioos:station:wmo:42045:1,2007-04-05T23:00:00Z,26.2168,-96.4998,997.27,11111222 
TABS,ioos:station:wmo:42045:1,2007-04-05T23:30:00Z,26.2168,-96.4998,995.33,11111222 
TABS,ioos:station:wmo:42045:1,2007-04-06T00:00:00Z,26.2168,-96.4998,990.89,11111222 
TABS,ioos:station:wmo:42045:1,2007-04-06T00:30:00Z,26.2168,-96.4998,984.32,11111222 
TABS,ioos:station:wmo:42045:1,2007-04-06T01:00:00Z,26.2168,-96.4998,981.73,11111222 
TABS,ioos:station:wmo:42045:1,2007-04-06T01:30:00Z,26.2168,-96.4998,981.53,11111222 
TABS,ioos:station:wmo:42045:1,2007-04-06T02:00:00Z,26.2168,-96.4998,981.2,11111222 
TABS,ioos:station:wmo:42045:1,2007-04-06T02:30:00Z,26.2168,-96.4998,981.19,11111222 
TABS,ioos:station:wmo:42045:1,2007-04-06T03:00:00Z,26.2168,-96.4998,981.22,11111222 
TABS,ioos:station:wmo:42045:1,2007-04-06T03:30:00Z,26.2168,-96.4998,981.23,11111222 
TABS,ioos:station:wmo:42045:1,2007-04-06T04:00:00Z,26.2168,-96.4998,981.38,11111222 
TABS,ioos:station:wmo:42045:1,2007-04-06T04:30:00Z,26.2168,-96.4998,981.42,11111222 
TABS,ioos:station:wmo:42045:1,2007-04-06T05:00:00Z,26.2168,-96.4998,981.21,11111222 
TABS,ioos:station:wmo:42045:1,2007-04-06T05:30:00Z,26.2168,-96.4998,981.37,11111222 
TABS,ioos:station:wmo:42045:1,2007-04-06T06:00:00Z,26.2168,-96.4998,981.22,11111222 
TABS,ioos:station:wmo:42045:1,2007-04-06T06:30:00Z,26.2168,-96.4998,981.1,11111222 
TABS,ioos:station:wmo:42045:1,2007-04-06T07:00:00Z,26.2168,-96.4998,981.09,11111222 
TABS,ioos:station:wmo:42045:1,2007-04-06T07:30:00Z,26.2168,-96.4998,980.96,11111222 
TABS,ioos:station:wmo:42045:1,2007-04-06T08:00:00Z,26.2168,-96.4998,981.12,11111222 
TABS,ioos:station:wmo:42045:1,2007-04-06T08:30:00Z,26.2168,-96.4998,981.03,11111222 
TABS,ioos:station:wmo:42045:1,2007-04-06T09:00:00Z,26.2168,-96.4998,980.83,11111222 
TABS,ioos:station:wmo:42045:1,2007-04-06T09:30:00Z,26.2168,-96.4998,981.03,11111222 
TABS,ioos:station:wmo:42045:1,2007-04-06T10:00:00Z,26.2168,-96.4998,981.07,11111222 
TABS,ioos:station:wmo:42045:1,2007-04-06T10:30:00Z,26.2168,-96.4998,980.73,11111222 
TABS,ioos:station:wmo:42045:1,2007-04-06T11:00:00Z,26.2168,-96.4998,980.6,11111222 
TABS,ioos:station:wmo:42045:1,2007-04-06T11:30:00Z,26.2168,-96.4998,980.47,11111222 
TABS,ioos:station:wmo:42045:1,2007-04-06T12:00:00Z,26.2168,-96.4998,980.59,11111222 
TABS,ioos:station:wmo:42045:1,2007-04-06T12:30:00Z,26.2168,-96.4998,985.91,11111222 
TABS,ioos:station:wmo:42045:1,2007-04-06T13:00:00Z,26.2168,-96.4998,995.4,11111222 
TABS,ioos:station:wmo:42045:1,2007-04-06T13:30:00Z,26.2168,-96.4998,1002.83,11111222 
TABS,ioos:station:wmo:42045:1,2007-04-06T14:00:00Z,26.2168,-96.4998,1008.01,11111222 
TABS,ioos:station:wmo:42045:1,2007-04-06T14:30:00Z,26.2168,-96.4998,1010.29,11111222 
TABS,ioos:station:wmo:42045:1,2007-04-06T15:00:00Z,26.2168,-96.4998,1010.94,11111222 
TABS,ioos:station:wmo:42045:1,2007-04-06T15:30:00Z,26.2168,-96.4998,1011.11,11111222 
TABS,ioos:station:wmo:42045:1,2007-04-06T16:00:00Z,26.2168,-96.4998,1010.03,11111222 
TABS,ioos:station:wmo:42045:1,2007-04-06T16:30:00Z,26.2168,-96.4998,1007.79,11111222 
TABS,ioos:station:wmo:42045:1,2007-04-06T17:00:00Z,26.2168,-96.4998,1005.72,11111222 
TABS,ioos:station:wmo:42045:1,2007-04-06T17:30:00Z,26.2168,-96.4998,1004.01,11111222 
TABS,ioos:station:wmo:42045:1,2007-04-06T18:00:00Z,26.2168,-96.4998,999.4,11111222 
TABS,ioos:station:wmo:42045:1,2007-04-06T18:30:00Z,26.2168,-96.4998,994.71,11111222 
TABS,ioos:station:wmo:42045:1,2007-04-06T19:00:00Z,26.2168,-96.4998,991.97,11111222 
TABS,ioos:station:wmo:42045:1,2007-04-06T19:30:00Z,26.2168,-96.4998,992.68,11111222 